This demonstration page uses our WeatherBlox Daily Observations layout. Learn more.

Left ArrowRight Arrow

39.92423, -83.80882

Hourly Observations for August 29, 2021

Temp ( °F °C ) Dew Point ( °F °C ) Humidity (%) Winds ( mph kmh ) Pressure ( in mb ) Visibility ( mi km ) Precip ( " mm )
12:56 am 00:56 Mostly Clear 73 23 N/A N/A SSE 5 7 30.16 1021 10 16 0.00 0.00
1:56 am 01:56 Clear 75 23.9 75 23.9 100 100 S 7 11 30.13 1020 10 16 0.00 0.00
2:56 am 02:56 Clear 75 23.9 75 23.9 100 100 S 6 9 30.12 1020 10 16 0.00 0.00
3:56 am 03:56 Clear 74 23.3 74 23.3 100 100 S 3 6 30.12 1020 10 16 0.00 0.00
4:56 am 04:56 Clear 73 23 N/A N/A SSW 5 7 30.12 1020 10 16 0.00 0.00
5:56 am 05:56 Clear 72 22 N/A N/A SSE 5 7 30.13 1020 10 16 0.00 0.00
6:56 am 06:56 Clear 72 22 N/A N/A SSW 5 7 30.14 1021 10 16 0.00 0.00
7:56 am 07:56 Sunny 73 23 N/A N/A SSW 6 9 30.15 1021 10 16 0.00 0.00
8:56 am 08:56 Sunny 75 24 N/A N/A SW 6 9 30.15 1021 10 16 0.00 0.00
9:56 am 09:56 Mostly Cloudy 77 25 N/A N/A Calm 30.16 1021 10 16 0.00 0.00
10:56 am 10:56 Mostly Sunny 78 25.6 77 25 97 97 SW 7 11 30.16 1021 10 16 0.00 0.00
11:56 am 11:56 Sunny 83 28.3 74 23.3 74 74 WSW 10 17 30.14 1021 10 16 0.00 0.00
12:56 pm 12:56 Sunny 86 30 74 23.3 67 67 WSW 14 22 30.11 1020 10 16 0.00 0.00
1:56 pm 13:56 Mostly Sunny 87 30.6 75 23.9 67 67 WSW 12 19 30.07 1018 10 16 0.00 0.00
2:56 pm 14:56 Mostly Cloudy 89 31.7 74 23.3 61 61 WSW 8 13 30.06 1018 10 16 0.00 0.00
3:56 pm 15:56 Mostly Sunny 90 32.2 74 23.3 59 59 SW 10 17 30.03 1017 10 16 0.00 0.00
4:56 pm 16:56 Mostly Cloudy 89 31.7 75 23.9 63 63 WNW 7 11 30.02 1017 10 16 0.00 0.00
5:29 pm 17:29 Mostly Cloudy with Nearby Thunderstorms 88 31 75 24 66 66 WNW 9 15 29.97 1015 10 16 0.00 0.00
5:56 pm 17:56 Mostly Cloudy with Nearby Thunderstorms 88 31.1 74 23.3 63 63 SW 9 15 30.01 1016 10 16 0.00 0.00
6:18 pm 18:18 Mostly Cloudy 82 28 72 22 70 70 SE 8 13 29.98 1015 10 16 0.00 0.00
6:56 pm 18:56 Mostly Sunny 82 27.8 75 23.9 79 79 SSE 5 7 30.01 1016 10 16 0.00 0.00
7:56 pm 19:56 Sunny 81 27.2 76 24.4 85 85 W 5 7 30.01 1016 10 16 0.00 0.00
8:56 pm 20:56 Clear 77 25 76 24.4 96 96 Calm 30.04 1017 10 16 0.00 0.00
9:56 pm 21:56 Clear 75 23.9 75 23.9 100 100 S 5 7 30.04 1017 10 16 0.00 0.00
10:56 pm 22:56 Clear 73 23 N/A N/A S 5 7 30.04 1017 10 16 0.00 0.00
11:56 pm 23:56 Partly Cloudy 72 22 N/A N/A Calm 30.05 1018 10 16 0.00 0.00

Powered by AerisWeather